Weather Roundup
Issued by NWS Springfield, MO

Home | Current Version | Previous Version | Text Only | Print | Product List | Glossary On
Versions: 1 2 3 4 5 6 7 8 9 10 11 12 13 14 15 16 17 18 19 20 21 22 23 24 25 26 27 28 29 30 31 32 33 34 35 36 37 38 39 40 41 42 43 44 45 46 47 48 49 50
000
NZUS99 KSGF 250007
HRRSGF

HOURLY WEATHER
NATIONAL WEATHER SERVICE SPRINGFIELD MO
700 PM CDT FRI OCT 24 2014

......SGF CWA......

CITY           SKY/WX    TMP DP  RH WIND       PRES   REMARKS
SPRINGFIELD    PTCLDY    64  59  83 S7        30.04F
6HR MIN TEMP:  64; 6HR MAX TEMP:  76;

JOPLIN         PTCLDY    66  60  81 S8        30.04S
6HR MIN TEMP:  66; 6HR MAX TEMP:  75;

WEST PLAINS    PTCLDY    65  56  72 S5        30.07F
6HR MIN TEMP:  63; 6HR MAX TEMP:  73;

ROLLA          MOCLDY    64  58  80 S8        30.01S
6HR MIN TEMP:  64; 6HR MAX TEMP:  71;

OSAGE BEACH    MOCLDY    70  57  64 S7        30.01S
BRANSON        CLEAR     64  59  82 SW5       30.08S

......SURROUNDING SGF CWA......

CITY           SKY/WX    TMP DP  RH WIND       PRES   REMARKS
CHANUTE        PTCLDY    68  62  81 S9        30.00F
PARSONS        PTCLDY    70  62  76 S5        30.02F
COFFEYVILLE    PTCLDY    69  61  75 S7        30.01S
EMPORIA        CLEAR     71  61  70 S12       29.97R
GROVE OK       MOCLDY    68  63  83 CALM      30.06S
ROGERS AR      MOCLDY    67  59  75 S7        30.09R
SILOAM SPRINGS MOCLDY    64  55  72 SW6       30.09S
HARRISON AR    CLOUDY    67  61  81 CALM      30.08R
NEAR YELLVILLE PTCLDY    66  55  68 CALM      30.06S

......KANSAS AND MISSOURI......

CITY           SKY/WX    TMP DP  RH WIND       PRES   REMARKS
KANSAS CTY INT MOCLDY    70  62  76 S12       29.93S
DOWNTOWN KC    MOCLDY    73  62  68 SW9       29.93S
COLUMBIA       MOCLDY    68  59  73 S8        29.99S
SEDALIA        MOCLDY    70  61  73 S7        29.98F
ST JOSEPH      MOCLDY    70  63  78 S5        29.92R
ST LOUIS       MOCLDY    70  49  47 S5        30.00S
SPIRIT OF STL  PTCLDY    60  52  74 S3        29.99S
KIRKSVILLE     MOCLDY    65  60  84 S7        29.94R
WICHITA        PTCLDY    74  60  61 SW7       29.99S
TOPEKA         CLEAR     74  63  68 S3        29.93S
OLATHE         MOCLDY    71  62  73 SW12      29.95S

......TENNESSEE......

CITY           SKY/WX    TMP DP  RH WIND       PRES   REMARKS
MEMPHIS        PTCLDY    66  56  70 CALM      30.08S
NASHVILLE      PTCLDY    63  45  51 NW3       30.08R

......ARKANSAS.......

CITY           SKY/WX    TMP DP  RH WIND       PRES   REMARKS
FAYETTEVILLE   MOCLDY    64  59  83 S3        30.08S
FT SMITH       CLOUDY    71  62  73 E5        30.06R
LITTLE ROCK    PTCLDY    67  56  67 S5        30.09R

......OKLAHOMA.......

CITY           SKY/WX    TMP DP  RH WIND       PRES   REMARKS
TULSA          MOCLDY    75  63  66 S7        30.01S
PONCA CITY     CLEAR     77  62  59 S3        30.00R
MCALESTER      CLEAR     73  61  65 SE5       30.06S
OKLAHOMA CITY  MOCLDY    75  61  61 S6        30.03R

......IOWA............

CITY           SKY/WX    TMP DP  RH WIND       PRES   REMARKS
DES MOINES     MOCLDY    62  59  90 S5        29.92R
QUAD CITIES    CLOUDY    66  54  65 W9        29.94R

......ILLINOIS........

CITY           SKY/WX    TMP DP  RH WIND       PRES   REMARKS
QUINCY         MOCLDY    65  55  70 S9        29.94F
CHICAGO        MOCLDY    61  46  57 S6        29.94S




USA.gov is the U.S. government's official web portal to all federal, state and local government web resources and services.